Regional Weather Roundup
Issued by NWS

Home | Current Version | Previous Version | Text Only | Print | Product List | Glossary On
Versions: 1 2 3 4 5 6 7 8 9 10 11 12 13 14 15 16 17 18 19 20 21 22 23 24 25 26 27 28 29 30 31 32 33 34 35 36 37 38 39 40 41 42 43 44 45 46 47 48 49 50
000
ASUS46 KPQR 020610
RWROR

OREGON REGIONAL WEATHER ROUNDUP
NATIONAL WEATHER SERVICE PORTLAND OR
1100 PM PDT MON SEP 01 2014

NOTE: "FAIR" INDICATES FEW OR NO CLOUDS BELOW 12,000 FEET WITH
NO SIGNIFICANT WEATHER AND/OR OBSTRUCTIONS TO VISIBILITY.

ORZ001>013-020700-
NORTHWEST OREGON


CITY           SKY/WX    TMP DP  RH WIND       PRES   REMARKS
ASTORIA        MOCLDY    63  59  87 NW9       30.01S
6HR MIN TEMP:  62; 6HR MAX TEMP:  70;

NEWPORT        FOG       59  59 100 N5        30.01F VSB 1/4
PORTLAND       CLEAR     67  58  72 NW10      29.97S
6HR MIN TEMP:  67; 6HR MAX TEMP:  80;

VANCOUVER WA   CLEAR     66  57  72 VRB5      29.96F
6HR MIN TEMP:  66; 6HR MAX TEMP:  80;

SCAPPOOSE      CLEAR     65  57  75 N5        29.96F
6HR MIN TEMP:  65; 6HR MAX TEMP:  80;

HILLSBORO      CLEAR     64  57  78 NW13      29.96F
6HR MIN TEMP:  64; 6HR MAX TEMP:  79;

AURORA         CLEAR     66  57  72 N7        29.96F
6HR MIN TEMP:  66; 6HR MAX TEMP:  82;

MCMINNVILLE    CLEAR     64  56  75 W3        29.97F
6HR MIN TEMP:  64; 6HR MAX TEMP:  82;

SALEM          CLEAR     65  56  72 N6        29.95F
6HR MIN TEMP:  65; 6HR MAX TEMP:  83;

CORVALLIS      CLEAR     64  57  77 NW12      29.97S
EUGENE         CLEAR     64  53  67 CALM      29.95S
6HR MIN TEMP:  63; 6HR MAX TEMP:  85;

$$

ORZ021-028-020700-
SOUTHWEST OREGON


CITY           SKY/WX    TMP DP  RH WIND       PRES   REMARKS
NORTH BEND     CLEAR     61  61 100 N7        29.97S
6HR MIN TEMP:  61; 6HR MAX TEMP:  70;

BROOKINGS      CLEAR     60  55  83 CALM      29.86S
ROSEBURG       CLEAR     70  53  54 CALM      29.92F
6HR MIN TEMP:  70; 6HR MAX TEMP:  89;

SEXTON SUMMIT  CLEAR     60  46  59 N10       30.03S
6HR MIN TEMP:  60; 6HR MAX TEMP:  74;

MEDFORD        CLEAR     71  49  45 CALM      29.91S
6HR MIN TEMP:  71; 6HR MAX TEMP:  92;

$$

ORZ009-041-020700-
COLUMBIA GORGE


CITY           SKY/WX    TMP DP  RH WIND       PRES   REMARKS
TROUTDALE      CLEAR     68  57  68 CALM      29.95F
6HR MIN TEMP:  68; 6HR MAX TEMP:  81;

THE DALLES     CLEAR     69  51  52 NW3       29.91S
6HR MIN TEMP:  69; 6HR MAX TEMP:  84;

$$

ORZ029>031-042>050-061>064-020700-
EASTERN OREGON


CITY           SKY/WX    TMP DP  RH WIND       PRES   REMARKS
REDMOND        CLEAR     61  47  59 NW5       30.00F
6HR MIN TEMP:  60; 6HR MAX TEMP:  79;

BEND           CLEAR     59  45  58 W5        30.04S
KLAMATH FALLS  CLEAR     54  43  66 CALM      30.02S
6HR MIN TEMP:  53; 6HR MAX TEMP:  82;

LAKEVIEW       CLEAR     55  32  41 NW10      30.07S
HERMISTON      CLEAR     65  46  50 S10       29.89S
6HR MIN TEMP:  64; 6HR MAX TEMP:  82;

PENDLETON      CLEAR     58  40  51 S6        29.92F
6HR MIN TEMP:  58; 6HR MAX TEMP:  80;

JOHN DAY       CLEAR     58  37  45 E9        30.03S
MEACHAM        CLEAR     45  41  86 CALM      30.03F
6HR MIN TEMP:  45; 6HR MAX TEMP:  70;

LA GRANDE      CLEAR     54  34  47 CALM      29.99F
6HR MIN TEMP:  54; 6HR MAX TEMP:  77;

BAKER CITY     CLEAR     48  42  80 N3        30.03S
6HR MIN TEMP:  48; 6HR MAX TEMP:  73;

BURNS          CLEAR     50  29  44 SW5       30.04S
6HR MIN TEMP:  49; 6HR MAX TEMP:  78;

ROME             N/A     58  29  33 E7        30.01F
6HR MIN TEMP:  58; 6HR MAX TEMP:  82;

ONTARIO        CLEAR     56  44  64 CALM      29.98R
6HR MIN TEMP:  56; 6HR MAX TEMP:  80;

$$


USA.gov is the U.S. government's official web portal to all federal, state and local government web resources and services.